Starlink 31529

operational
NORAD ID: 59000 Int'l Des: 2024-036 Owner: SPXS Country: US Constellation: starlink
LEOCIRCULAR

Über Starlink 31529

Beschreibung wird geladen...

Live-Position

3D-Globus wird geladen...

Nächste Überflüge

Höhenverlauf

Altitude vs Time

uPlot chart will show altitude changes over time

Zweizeiliger Elementsatz

1 59000U 24036C 26036.22406667 .00000407 00000-0 25893-4 0 9991
2 59000 53.1589 226.7323 0001785 84.8453 275.2751 15.30191239110303
Epoch: 5. Feb. 2026 • Age: 11 hours

Aktueller Status

Höhe 495.0 km
Geschwindigkeit 7.62 km/s
Subsatellitenpunkt -53.29°S, 121.88°E
Startdatum 23. Feb. 2024
Alter 1.9 years
Typ internet

Technische Details

Klassifizierung Payload
Masse 730.00 kg
Trockenmasse 700.00 kg
Gesamtmasse 730.00 kg
Länge 0.30 m
Durchmesser 4.10 m
Spannweite 29.00 m
Form Box + pan
Hersteller SPXS
Bus-Typ Starlink V2M
Phasenstatus In Orbit
Besitzer/Staat SPXS/US

Große Konstellationen

Loading constellations...